Home > Weather > Campo Grande > Past weeks

Flag for Brazil Past Weather in Campo Grande, Mato Grosso Do Sul, Brazil — Yesterday and Last 2 Weeks

Now
70 °F

Sunny.


Feels Like: 70 °F
Forecast: 69 / 82 °F
Wind: 15 mph from Northeast

Location: Campo Grande Aeroporto

Current Time: Jun 26, 2016 at 7:49:36 AM

Latest Report: Jun 26, 2016 at 7:00 AM


Visibility: 10 mi

Pressure: 30.15 "Hg (28.40 "Hg at 516m altitude)

Humidity: 60%

Dew Point: 55 °F

Location of Campo GrandeLocation

Past Weather in Campo Grande — Graph

°F

Campo Grande Temperature Yesterday

Maximum temperature yesterday: 86 °F (at 2:00 PM)
Minimum temperature yesterday: 68 °F (at 2:00 AM)
Average temperature yesterday: 75 °F

High & Low Weather Summary for the Past Weeks

 TemperatureHumidityPressure
High86 °F (Jun 25, 2:00 PM)100% (Jun 18, 5:00 AM)30.39 "Hg (Jun 18, 5:00 AM)
Low43 °F (Jun 12, 6:00 AM)22% (Jun 12, 3:00 PM)30.01 "Hg (Jun 24, 4:00 PM)
Average67 °F66%30.16 "Hg
* Reported Jun 11 7:00 AM — Jun 26 7:00 AM, Campo Grande, Weather by CustomWeather, © 2016

Note: Actual official high and low records may vary slightly from our data, if they occured in-between our weather recording intervals... More about our weather records

Advertising

Campo Grande Weather History for the Previous 24 Hours

Scroll right to see more
 ConditionsComfort  
Time TempWeatherWind HumidityBarometerVisibility
7:00 AM
Sun, Jun 26
70 °FSunny.15 mph60%30.15 "Hg10 mi
6:00 AM68 °FScattered clouds.16 mph69%30.12 "HgN/A
5:00 AM68 °FPassing clouds.16 mph69%30.09 "HgN/A
4:00 AM68 °FPassing clouds.15 mph73%30.09 "HgN/A
3:00 AM70 °FPassing clouds.14 mph69%30.09 "HgN/A
2:00 AM70 °FClear.12 mph69%30.09 "Hg10 mi
1:00 AM70 °FClear.14 mph73%30.09 "Hg10 mi
12:00 AM70 °FClear.14 mph73%30.12 "Hg10 mi
11:00 PM
Sat, Jun 25
72 °FClear.13 mph69%30.12 "Hg10 mi
10:00 PM72 °FClear.12 mph69%30.12 "Hg10 mi
9:00 PM73 °FClear.10 mph61%30.12 "Hg10 mi
8:00 PM73 °FClear.9 mph61%30.09 "Hg10 mi
7:00 PM75 °FClear.8 mph57%30.07 "Hg10 mi
6:00 PM75 °FClear.5 mph57%30.07 "Hg10 mi
5:00 PM81 °FPassing clouds.3 mph45%30.07 "HgN/A
4:00 PM84 °FPassing clouds.9 mph37%30.04 "HgN/A
3:00 PM86 °FPassing clouds.8 mph35%30.04 "HgN/A
2:00 PM86 °FPassing clouds.10 mph35%30.07 "HgN/A
1:00 PM84 °FSunny.15 mph40%30.07 "Hg10 mi
12:00 PM82 °FSunny.15 mph42%30.09 "Hg10 mi
11:00 AM81 °FSunny.18 mph48%30.12 "Hg10 mi
10:00 AM77 °FSunny.22 mph54%30.15 "Hg10 mi
9:00 AM73 °FSunny.22 mph57%30.15 "Hg10 mi
8:00 AM70 °FSunny.18 mph69%30.15 "Hg10 mi
7:00 AM68 °FSunny.17 mph73%30.12 "Hg10 mi
Weather by CustomWeather, © 2016

See weather overviewHow to use our weather pages